Location: Unspecified
(41.9031°N, 12.4386°E)
Time: 04:04:19
(UTC+02:00)

ISS - Pass Details

Date: 02 April 2020
Orbit: 417 x 423 km, 51.6° (Epoch: 29 March)

Event Time Altitude Azimuth Distance (km) Brightness Sun altitude
Rises 21:48:01 0° 301° (WNW) 2,361 1.5 -23.6°
Reaches altitude 10° 21:50:09 10° 297° (WNW) 1,495 0.1 -23.9°
Enters shadow 21:52:21 35° 276° (W) 693 -2.2 -24.3°
